Location: Barcelona
(41.3830°N, 2.1830°E)
Time: 09:36:58
(UTC+02:00)

ISS - Pass Details

Date: 12 October 2019
Orbit: 411 x 421 km, 51.6° (Epoch: 15 October)

Event Time Altitude Azimuth Distance (km) Brightness Sun altitude
Rises 19:42:30 0° 295° (WNW) 2,344 1.2 -5.8°
Reaches altitude 10° 19:44:53 10° 279° (W) 1,478 0.6 -6.3°
Maximum altitude 19:47:31 22° 226° (SW) 949 -1.2 -6.8°
Drops below altitude 10° 19:50:08 10° 173° (S) 1,469 -1.0 -7.3°
Sets 19:52:30 0° 158° (SSE) 2,326 -0.2 -7.7°
